Location: �terpigny
(49.8910°N, 2.9249°E)
Time: 14:07:40
(UTC+00:00)

Cosmos 220 Rocket - Pass Details

Date: 24 October 2021
Orbit: 575 x 615 km, 74.0° (Epoch: 27 November)

Event Time Altitude Azimuth Distance (km) Brightness Sun altitude
Rises 18:31:40 0° 198° (SSW) 2,870 7.7 -18.7°
Reaches altitude 10° 18:33:54 10° 197° (SSW) 1,967 6.8 -19.0°
Maximum altitude 18:38:18 77° 112° (ESE) 631 3.9 -19.7°
Enters shadow 18:41:06 22° 28° (NNE) 1,350 5.6 -20.2°
